Location: IoMAS Observatory
(54.1780°N, 4.6265°W)
Time: 08:07:29
(UTC+01:00)

ISS - Visible Passes

Search period start: 19 February 2019 00:00
Search period end: 01 March 2019 00:00
Orbit: 403 x 411 km, 51.6° (Epoch: 19 February)

Date Brightness Start Highest point End Pass type
(mag) Time Alt. Az. Time Alt. Az. Time Alt. Az.
24 Feb -0.7 07:18:26 10° SSE 07:19:38 12° SE 07:20:50 10° ESE visible
26 Feb -1.4 07:10:17 10° SSW 07:12:43 20° SSE 07:15:10 10° E visible
27 Feb -1.1 06:19:39 10° S 06:21:24 14° SE 06:23:10 10° ESE visible
28 Feb -2.2 07:02:57 10° SW 07:05:52 30° SSE 07:08:47 10° E visible
